Flag for Egypt Weather past 2 weeks in Alexandria, Egypt

Now
70 °F

Scattered clouds.


Feels Like: 70 °F
Forecast: 62 / 69 °F
Wind: 14 mph from Northwest

Location: Alexandria / Nouzha

Current Time: Apr 21, 2015 at 12:57:47 PM

Latest Report: Apr 21, 2015 at 12:00 PM


Visibility: N/A

Pressure: 29.98 "Hg

Humidity: 60%

Dew point: 55 °F

Location of AlexandriaLocation

Historic Weather in Alexandria — Graph

°F

Alexandria temperature yesterday

Maximum temperature yesterday: 93 °F (at 12:00 PM)
Minimum temperature yesterday: 57 °F (at 6:00 AM)
Average temperature yesterday: 73 °F

Past Weeks' High & Low Weather Summary

 TemperatureHumidityPressure
High93 °F (Apr 20, 12:00 PM)100% (Apr 18, 7:00 AM)30.30 "Hg (Apr 18, 7:00 AM)
Low48 °F (Apr 14, 6:00 AM)8% (Apr 20, 1:00 PM)29.62 "Hg (Apr 8, 4:00 PM)
Average64 °F64%30.02 "Hg
* Reported Apr 6 11:00 AM — Apr 21 11:00 AM, Alexandria, Weather by CustomWeather, © 2015

Note: Actual official high and low records may vary slightly from our data, if they occured in-between our weather recording intervals... More about our weather records

Advertising

Alexandria weather history for previous 24 hours

 ConditionsComfort  
Time TempWeatherWind HumidityBarometerVisibility
11:00 AM
Tue, Apr 21
70 °FScattered clouds.12 mph64%29.98 "HgN/A
9:00 AM68 °FScattered clouds.7 mph69%29.95 "HgN/A
8:00 AM66 °FScattered clouds.6 mph73%29.95 "HgN/A
7:00 AM64 °FScattered clouds.6 mph78%29.92 "HgN/A
6:00 AM63 °FPassing clouds.5 mph83%29.89 "HgN/A
5:00 AM63 °FPassing clouds.8 mph83%29.89 "HgN/A
4:00 AM63 °FPassing clouds.6 mph77%29.86 "HgN/A
2:00 AM64 °FPassing clouds.8 mph78%29.89 "HgN/A
1:00 AM63 °FPassing clouds.7 mph88%29.89 "HgN/A
12:00 AM64 °FPassing clouds.6 mph83%29.89 "HgN/A
11:00 PM
Mon, Apr 20
64 °FPassing clouds.7 mph88%29.89 "HgN/A
10:00 PM66 °FClear.5 mph78%29.86 "Hg10 mi
9:00 PM66 °FClear.5 mph73%29.86 "Hg10 mi
8:00 PM68 °FClear.8 mph56%29.86 "Hg10 mi
7:00 PM72 °FClear.5 mph50%29.83 "Hg10 mi
6:00 PM73 °FSunny.9 mph38%29.83 "Hg10 mi
5:00 PM77 °FClear.12 mph34%29.83 "Hg4 mi
4:00 PM81 °FClear.13 mph20%29.83 "Hg4 mi
3:00 PM86 °FSandstorm.13 mph13%29.86 "Hg2 mi
2:00 PM93 °FClear.15 mph9%29.86 "Hg4 mi
1:00 PM93 °FSunny.17 mph8%29.86 "Hg10 mi
12:00 PM93 °FSunny.16 mph17%29.89 "Hg10 mi
Weather by CustomWeather, © 2015

See weather overviewHow to use our weather pages